Aeroporto :
LOGIN :

Iscrizione | Disclaimer

   EN    FR    IT 

 










Sommario :    VFR   VFR Marginale   IFR   IFR Intensivo   IFR Molto Intensivo
Visibilità : 
Base nubi : 
>= 8 km
>= 3000ft
5 / 8 km
1000 / 3000 ft
1500m / 5 km
500 / 1000 ft
800 / 1500m
200 / 500 ft
< 800m
< 200 ft
Simboli :   Temporali  Nebbia  Neve Forte  Precipitazioni Forti  Vento > 20 kt
SIGMETs :   Varie  Temporali  Ghiacco  Turbolenza  Onda orograficha  Ceneri Vulcaniche







- Altitudine del aeroporto : 238 ft
- Codice IATA : FAB
- Carte del aeroporto


EGLF - Farnborough

ULTIMO METAR :
  • 211050Z AUTO 24010KT 9999 SCT039 20/12 Q1021

METARs OBSOLETI :
  • 211020Z AUTO 24010KT 200V260 9999 FEW033 OVC042 20/12 Q1021
  • 210950Z AUTO 24013KT 9999 FEW031/// 20/12 Q1021
  • 210920Z AUTO 24010KT 210V280 9999 FEW028/// SCT032/// BKN046/// 19/13 Q1021
  • 210850Z AUTO 23010KT 9999 FEW021 SCT027 19/13 Q1021
  • 210820Z AUTO 23008KT 9999 FEW018/// 18/13 Q1020

TAF TAF EGLF
Valido dal 21 a 09 ore il 21 a 18 ore UTC


210802Z 2109/2118 23009KT 9999 FEW025
ATIS : +44 09063 800 400 (*282)
Nessun NOTAM noto per questo aeroporto.



MetMap, La meteo Aeronautica in un colpo d'occhio ! - Copyright ORBIFLY Dicembre 2007 - Disclaimer

ORBIFLY MET'MAP TEAM :

Programmazione e sviluppo : Alexandra Zaïnal
Concezione e sviluppo : Baudouin d'Aumeries
Co-Programmazione e sviluppo : Marc-Olivier Méhu
Supporto tecnico e logistico : Manuel Goepfert
Aiuto per la traduzione : Arnaldo La Scala

Contatto : metmap@orbifly.com




FONTI E CREDITI :

   NOAA